• In Uzbekistan
  • List of Countries
  • For 7 days
  • Water Temperature
  • Satellite Maps
  • Weather Map
  • Weather Widgets
  • user-avatar
    Login

    Hourly Weather Barnowiec

    Today, 21 September, Friday

    Time Temperature Precipitation Wind Pressure Humidity
    00:00 +19°C° 0 mm 3 mps 748 mmHg 72%
    01:00 +19°C° 0 mm 3 mps 748 mmHg 73%
    02:00 +19°C° 0 mm 3 mps 747 mmHg 73%
    03:00 +19°C° 0 mm 3 mps 747 mmHg 72%
    04:00 +19°C° 0 mm 4 mps 746 mmHg 72%
    05:00 +20°C° 0 mm 4 mps 746 mmHg 71%
    06:00 +20°C° 0 mm 5 mps 746 mmHg 69%
    07:00 +20°C° 0 mm 4 mps 745 mmHg 70%
    08:00 +22°C° 0 mm 5 mps 745 mmHg 64%
    09:00 +24°C° 0 mm 6 mps 745 mmHg 58%
    10:00 +27°C° 0 mm 7 mps 745 mmHg 51%
    11:00 +28°C° 0 mm 7 mps 744 mmHg 47%
    12:00 +29°C° 0 mm 8 mps 743 mmHg 43%
    13:00 +31°C° 0 mm 8 mps 743 mmHg 39%
    14:00 +31°C° 0 mm 8 mps 742 mmHg 40%
    15:00 +29°C° 0 mm 7 mps 741 mmHg 40%
    16:00 +29°C° 0 mm 7 mps 740 mmHg 41%
    17:00 +26°C° 0.7 mm 7 mps 740 mmHg 51%
    18:00 +23°C° 0.7 mm 7 mps 740 mmHg 60%
    19:00 +21°C° 0.7 mm 7 mps 740 mmHg 70%
    20:00 +18°C° 1.6 mm 7 mps 741 mmHg 74%
    21:00 +16°C° 1.6 mm 7 mps 742 mmHg 78%
    22:00 +14°C° 1.6 mm 6 mps 743 mmHg 82%
    23:00 +13°C° 0.2 mm 6 mps 743 mmHg 79%

    Tomorrow, 22 September, Saturday

    Time Temperature Precipitation Wind Pressure Humidity
    00:00 +13°C° 0.2 mm 6 mps 744 mmHg 75%
    01:00 +11°C° 0.2 mm 6 mps 744 mmHg 71%
    02:00 +10°C° 0 mm 7 mps 744 mmHg 71%
    03:00 +10°C° 0 mm 7 mps 745 mmHg 70%
    04:00 +9°C° 0 mm 7 mps 745 mmHg 70%
    05:00 +10°C° 0 mm 7 mps 745 mmHg 69%
    06:00 +10°C° 0 mm 7 mps 745 mmHg 68%
    07:00 +10°C° 0 mm 8 mps 746 mmHg 68%
    08:00 +10°C° 0.2 mm 7 mps 746 mmHg 67%
    09:00 +11°C° 0.2 mm 7 mps 747 mmHg 67%
    10:00 +12°C° 0.2 mm 7 mps 747 mmHg 66%
    11:00 +12°C° 0.3 mm 7 mps 747 mmHg 64%
    12:00 +14°C° 0.3 mm 7 mps 747 mmHg 62%
    13:00 +14°C° 0.3 mm 7 mps 748 mmHg 61%
    14:00 +14°C° 0.4 mm 6 mps 748 mmHg 61%
    15:00 +14°C° 0.4 mm 6 mps 747 mmHg 62%
    16:00 +14°C° 0.4 mm 6 mps 747 mmHg 62%
    17:00 +13°C° 0.3 mm 6 mps 747 mmHg 68%
    18:00 +11°C° 0.3 mm 6 mps 747 mmHg 74%
    19:00 +10°C° 0.3 mm 5 mps 747 mmHg 79%
    20:00 +10°C° 0.2 mm 6 mps 747 mmHg 79%
    21:00 +9°C° 0.2 mm 6 mps 747 mmHg 79%
    22:00 +9°C° 0.2 mm 6 mps 747 mmHg 79%
    23:00 +9°C° 0.2 mm 6 mps 747 mmHg 79%

    Day after tomorrow, 23 September, Sunday

    Time Temperature Precipitation Wind Pressure Humidity
    00:00 +9°C° 0.2 mm 6 mps 747 mmHg 78%
    01:00 +8°C° 0.2 mm 7 mps 747 mmHg 78%
    02:00 +8°C° 0.3 mm 7 mps 747 mmHg 78%
    03:00 +8°C° 0.3 mm 7 mps 747 mmHg 78%
    04:00 +8°C° 0.3 mm 7 mps 746 mmHg 78%
    05:00 +9°C° 0.3 mm 7 mps 747 mmHg 78%
    06:00 +9°C° 0.3 mm 7 mps 747 mmHg 77%
    07:00 +9°C° 0.3 mm 7 mps 747 mmHg 77%
    08:00 +10°C° 0.1 mm 7 mps 747 mmHg 74%
    09:00 +11°C° 0.1 mm 7 mps 747 mmHg 70%
    10:00 +12°C° 0.1 mm 8 mps 747 mmHg 66%
    11:00 +12°C° 0.2 mm 8 mps 747 mmHg 63%
    12:00 +13°C° 0.2 mm 8 mps 747 mmHg 61%
    13:00 +13°C° 0.2 mm 8 mps 747 mmHg 58%
    14:00 +14°C° 0.2 mm 7 mps 747 mmHg 59%
    15:00 +14°C° 0.2 mm 6 mps 747 mmHg 61%
    16:00 +13°C° 0.2 mm 5 mps 746 mmHg 62%
    17:00 +12°C° 0.1 mm 4 mps 746 mmHg 66%
    18:00 +12°C° 0.1 mm 4 mps 746 mmHg 70%
    19:00 +11°C° 0.1 mm 3 mps 746 mmHg 75%
    20:00 +10°C° 0.1 mm 2 mps 745 mmHg 76%
    21:00 +10°C° 0.1 mm 2 mps 745 mmHg 78%
    22:00 +10°C° 0.1 mm 2 mps 744 mmHg 80%
    23:00 +10°C° 0.3 mm 2 mps 743 mmHg 82%

    24 September, Monday

    Time Temperature Precipitation Wind Pressure Humidity
    00:00 +9°C° 0.3 mm 2 mps 743 mmHg 84%
    01:00 +9°C° 0.3 mm 2 mps 742 mmHg 86%
    02:00 +9°C° 0.5 mm 2 mps 742 mmHg 85%
    03:00 +9°C° 0.5 mm 3 mps 742 mmHg 84%
    04:00 +8°C° 0.5 mm 4 mps 742 mmHg 83%
    05:00 +8°C° 0.1 mm 4 mps 743 mmHg 80%
    06:00 +9°C° 0.1 mm 5 mps 744 mmHg 78%
    07:00 +9°C° 0.1 mm 5 mps 744 mmHg 75%
    08:00 +9°C° 0.1 mm 6 mps 745 mmHg 69%
    09:00 +10°C° 0.1 mm 7 mps 746 mmHg 64%
    10:00 +11°C° 0.1 mm 7 mps 746 mmHg 58%
    11:00 +11°C° 0.3 mm 7 mps 747 mmHg 56%
    12:00 +11°C° 0.3 mm 7 mps 748 mmHg 55%
    13:00 +11°C° 0.3 mm 7 mps 749 mmHg 54%
    14:00 +11°C° 0.1 mm 7 mps 749 mmHg 52%
    15:00 +10°C° 0.1 mm 7 mps 750 mmHg 51%
    16:00 +10°C° 0.1 mm 6 mps 751 mmHg 49%
    17:00 +9°C° 0.1 mm 6 mps 752 mmHg 53%
    18:00 +8°C° 0.1 mm 5 mps 753 mmHg 56%
    19:00 +8°C° 0.1 mm 4 mps 753 mmHg 60%
    20:00 +7°C° 0.4 mm 4 mps 754 mmHg 62%
    21:00 +7°C° 0.4 mm 4 mps 755 mmHg 65%
    22:00 +7°C° 0.4 mm 5 mps 755 mmHg 67%
    23:00 +7°C° 0.1 mm 5 mps 756 mmHg 68%

    25 September, Tuesday

    Time Temperature Precipitation Wind Pressure Humidity
    00:00 +6°C° 0.1 mm 5 mps 756 mmHg 68%
    01:00 +6°C° 0.1 mm 5 mps 757 mmHg 69%
    02:00 +6°C° 0 mm 5 mps 757 mmHg 68%
    03:00 +6°C° 0 mm 5 mps 758 mmHg 66%
    04:00 +6°C° 0 mm 5 mps 758 mmHg 65%
    05:00 +6°C° 0 mm 5 mps 759 mmHg 64%
    06:00 +6°C° 0 mm 5 mps 759 mmHg 62%
    07:00 +7°C° 0 mm 5 mps 760 mmHg 61%
    08:00 +8°C° 0 mm 5 mps 760 mmHg 56%
    09:00 +10°C° 0 mm 6 mps 761 mmHg 52%
    10:00 +11°C° 0 mm 7 mps 761 mmHg 47%
    11:00 +12°C° 0.1 mm 7 mps 761 mmHg 49%
    12:00 +12°C° 0.1 mm 7 mps 761 mmHg 50%
    13:00 +14°C° 0.1 mm 7 mps 761 mmHg 52%
    14:00 +12°C° 0.1 mm 7 mps 760 mmHg 55%
    15:00 +12°C° 0.1 mm 7 mps 760 mmHg 59%
    16:00 +12°C° 0.1 mm 7 mps 760 mmHg 63%
    17:00 +11°C° 0 mm 7 mps 760 mmHg 67%
    18:00 +10°C° 0 mm 6 mps 760 mmHg 71%
    19:00 +10°C° 0 mm 6 mps 759 mmHg 75%
    20:00 +10°C° 0.1 mm 6 mps 759 mmHg 75%
    21:00 +10°C° 0.1 mm 6 mps 759 mmHg 75%
    22:00 +10°C° 0.1 mm 6 mps 759 mmHg 76%
    23:00 +10°C° 0.1 mm 6 mps 759 mmHg 76%

    26 September, Wednesday

    Time Temperature Precipitation Wind Pressure Humidity
    00:00 +10°C° 0.1 mm 6 mps 758 mmHg 76%
    01:00 +10°C° 0.1 mm 7 mps 758 mmHg 77%
    02:00 +10°C° 0.2 mm 7 mps 758 mmHg 76%
    03:00 +10°C° 0.2 mm 7 mps 758 mmHg 76%
    04:00 +10°C° 0.2 mm 7 mps 758 mmHg 76%
    05:00 +10°C° 0.1 mm 7 mps 757 mmHg 76%
    06:00 +10°C° 0.1 mm 7 mps 757 mmHg 77%
    07:00 +10°C° 0.1 mm 6 mps 757 mmHg 77%
    08:00 +10°C° 0.1 mm 7 mps 757 mmHg 76%
    09:00 +11°C° 0.1 mm 7 mps 757 mmHg 76%
    10:00 +11°C° 0.1 mm 7 mps 757 mmHg 75%
    11:00 +11°C° 0.1 mm 7 mps 757 mmHg 74%
    12:00 +12°C° 0.1 mm 7 mps 757 mmHg 73%
    13:00 +12°C° 0.1 mm 7 mps 756 mmHg 72%
    14:00 +12°C° 0.1 mm 7 mps 756 mmHg 72%
    15:00 +12°C° 0.1 mm 7 mps 756 mmHg 73%
    16:00 +13°C° 0.1 mm 6 mps 755 mmHg 73%
    17:00 +11°C° 0.1 mm 6 mps 755 mmHg 74%
    18:00 +11°C° 0.1 mm 6 mps 755 mmHg 75%
    19:00 +10°C° 0.1 mm 5 mps 755 mmHg 75%
    20:00 +10°C° 0 mm 5 mps 755 mmHg 74%
    21:00 +10°C° 0 mm 5 mps 755 mmHg 72%
    22:00 +10°C° 0 mm 5 mps 755 mmHg 70%
    23:00 +10°C° 0 mm 5 mps 754 mmHg 69%
    Show more